Regional Weather Roundup
Issued by NWS Sterling, VA

Home | Current Version | Previous Version | Graphics & Text | Print | Product List | Glossary On
Versions: 1 2 3 4 5 6 7 8 9 10 11 12 13 14 15 16 17 18 19 20 21 22 23 24 25 26 27 28 29 30 31 32 33 34 35 36 37 38 39 40 41 42 43 44 45 46 47 48 49 50
207
ASUS41 KLWX 240111
RWRLWX

REGIONAL WEATHER ROUNDUP
NATIONAL WEATHER SERVICE BALTIMORE MD/WASHINGTON DC
900 PM EDT SAT SEP 23 2017

Note: "FAIR" indicates few or no clouds below 12,000 feet
with no significant weather and/or obstructions to visibility.
 TC=TEMPERATURE CELSIUS

 * =Non NWS site. Station does not report precipitation (e.g. rain,
    snow, etc.), thunder, or fog.

DCZ001-MDZ009-015-VAZ040>042-051-053>054-240200-
WASHINGTON METRO

CITY           SKY/WX    TMP DP  RH WIND       PRES   REMARKS
WASHINGTON NAT CLEAR     77  60  55 N6        30.08R
DULLES         CLEAR     68  64  87 CALM      30.08R
ANDREWS AFB    CLEAR     67  63  86 CALM      30.07R
FT BELVOIR     CLEAR     67  63  87 CALM      30.07R
QUANTICO       CLEAR     73  69  87 NW6       30.08R
COLLEGE PARK*  CLEAR     67  63  86 CALM      30.07R
LEESBURG*      CLEAR     70  68  94 CALM      30.09S
MANASSAS*      CLEAR     66  63  90 CALM      30.08S

$$

MDZ006>007-011-014-240200-
BALTIMORE METRO

CITY           SKY/WX    TMP DP  RH WIND       PRES   REMARKS
BWI AIRPORT    CLEAR     68  62  81 CALM      30.07R
MD SCIENCE CTR   N/A     81  55  40 MISG      30.07R
MARTIN STATE   CLEAR     72  63  73 CALM      30.07S
ANNAPOLIS      CLEAR     75  73  93 CALM      30.06R
FORT MEADE*    CLEAR     63  61  94 CALM      30.10R

$$

MDZ012-015-019>023-240200-
MARYLAND EASTERN SHORE

CITY           SKY/WX    TMP DP  RH WIND       PRES   REMARKS
OCEAN CITY     CLEAR     68  67  96 CALM      30.07R
SALISBURY      CLEAR     72  69  90 CALM      30.06R
CAMBRIDGE*     CLEAR     70  66  88 CALM      30.06R
EASTON*        CLEAR     73  64  73 CALM      30.10R

$$

MDZ017>025-240200-
SOUTHERN MARYLAND

CITY           SKY/WX    TMP DP  RH WIND       PRES   REMARKS
PATUXENT RIVER CLEAR     68  66  93 W6        30.06R
ST INIGOES     CLEAR     70  66  87 CALM      30.06R
LEONARDTOWN*   CLEAR     68  64  88 CALM      30.09R

$$

MDZ003>005-240200-
NORTH CENTRAL MARYLAND

CITY           SKY/WX    TMP DP  RH WIND       PRES   REMARKS
FREDERICK*     NOT AVBL
HAGERSTOWN APT CLEAR     76  53  44 E5        30.10R
WESTMINSTER*   CLEAR     72  61  68 CALM      30.11R

$$

MDZ501>502-240200-
WESTERN MARYLAND

CITY           SKY/WX    TMP DP  RH WIND       PRES   REMARKS
OAKLAND*       CLEAR     68  50  52 E5        30.20S
CUMBERLAND*    CLEAR     73  55  53 N5        30.15S

$$

VAZ025>031-240200-
SHENANDOAH VALLEY

CITY           SKY/WX    TMP DP  RH WIND       PRES   REMARKS
WINCHESTER*    CLEAR     68  59  73 CALM      30.11R
FRONT ROYAL*   CLEAR     68  57  68 CALM      30.10R
LURAY*         CLEAR     64  54  68 CALM      30.12S
NEW MARKET*    CLEAR     63  52  67 CALM      30.12R
STAUNTON*      CLEAR     65  57  76 CALM      30.15R
WAYNESBORO*    CLEAR     65  60  82 CALM      30.14S

$$

WVZ021-048>050-054>055-240200-
EASTERN WEST VIRGINIA PANHANDLE

CITY           SKY/WX    TMP DP  RH WIND       PRES   REMARKS
MARTINSBURG    CLEAR     69  55  60 CALM      30.09R
PETERSBURG*    CLEAR     65  57  75 CALM      30.13S

$$

VAZ036>039-050-240200-
CENTRAL FOOTHILLS

CITY           SKY/WX    TMP DP  RH WIND       PRES   REMARKS
CHARLOTTESVILL CLEAR     69  63  81 N3        30.10R
CULPEPER*      CLEAR     66  62  89 CALM      30.10R
ORANGE*        CLEAR     63  59  88 CALM      30.10R
GORDONSVILLE*  CLEAR     65  63  96 CALM      30.09S
WARRENTON*     CLEAR     61  55  83 CALM      30.08S

$$

VAZ055>057-240200-
NORTH AND CENTRAL PIEDMONT

CITY           SKY/WX    TMP DP  RH WIND       PRES   REMARKS
FREDERICKSBRG* CLEAR     71  67  87 CALM      30.07R
STAFFORD*      CLEAR     65  65 100 CALM      30.12R

$$

NCZ024-NYZ072-PAZ021-071-VAZ022-071-240200-
OTHER REGIONAL OBSERVATIONS

CITY           SKY/WX    TMP DP  RH WIND       PRES   REMARKS
NEW YORK CITY  CLEAR     78  51  38 CALM      30.06S
PHILADELPHIA   CLEAR     77  61  57 SW3       30.05R
PITTSBURGH     PTCLDY    75  59  57 CALM      30.13S
ROANOKE        CLEAR     72  58  61 W3        30.14R
RICHMOND       PTCLDY    72  66  81 CALM      30.07R
RALEIGH        MOCLDY    75  61  61 E6        30.07R

$$

ANZ530>537-240200-
MARINE OBSERVATIONS

STATION/POSITION TIME  TEMP    WIND        PRES
                       AIR SEA DIR/SP/G
                 (UTC) (F)     (DEG/KT/KT) (MB)
THOMAS PT LIGHT  0000   79 76  310/  3/  3   N/A
BALT KEY BRIDGE  0042   78      CALM  /  2 1017.9R
COVE POINT       0042   77     330/  2/  3 1018.6R
LEWISETTA        0036   76 78  290/  2/  2 1017.7R
SOLOMONS ISLAND  0042   75 77  310/  2/  3 1017.6R
PINEY POINT      0036           30/  2/  2   N/A

$$





USA.gov is the U.S. government's official web portal to all federal, state and local government web resources and services.